Flag for Germany Weather past 2 weeks in Königs Wusterhausen, Brandenburg, Germany

Now
52 °F

Partly sunny.


Feels Like: 49 °F
Forecast: 38 / 50 °F
Wind: 9 mph from Northeast

Location: Berlin-Schoenefeld

Current Time: Oct 23, 2014 at 12:21:57 PM

Latest Report: Oct 23, 2014 at 11:50 AM


Visibility: N/A

Pressure: 30.12 "Hg

Humidity: 82%

Dew point: 46 °F

Location of Königs WusterhausenLocation

Historic Weather in Königs Wusterhausen — Graph

°F

Königs Wusterhausen temperature yesterday

Maximum temperature yesterday: 54 °F (at 12:20 AM)
Minimum temperature yesterday: 46 °F (at 5:50 AM)
Average temperature yesterday: 49 °F

Past Weeks' High & Low Weather Summary

 TemperatureHumidityPressure
High72 °F (Oct 19, 3:20 PM)100% (Oct 10, 6:50 AM)30.24 "Hg (Oct 10, 6:50 AM)
Low46 °F (Oct 16, 7:50 AM)60% (Oct 8, 1:50 PM)29.45 "Hg (Oct 21, 10:50 PM)
Average57 °F88%29.86 "Hg
* Reported Oct 8 11:20 AM — Oct 23 11:20 AM, Königs Wusterhausen, Weather by CustomWeather, © 2014

Note: Actual official high and low records may vary slightly from our data, if they occured in-between our weather recording intervals... More about our weather records

Advertising

Königs Wusterhausen weather history for previous 24 hours

 ConditionsComfort  
Time TempWeatherWind HumidityBarometerVisibility
11:20 AM
Oct 23
52 °FPartly sunny.7 mph88%30.12 "HgN/A
10:50 AM52 °FPartly sunny.7 mph94%30.09 "HgN/A
10:20 AM52 °FBroken clouds.5 mph88%30.09 "HgN/A
9:50 AM52 °FBroken clouds.6 mph94%30.09 "Hg5 mi
9:20 AM52 °FBroken clouds.5 mph94%30.09 "Hg4 mi
8:50 AM52 °FPartly sunny.6 mph94%30.09 "Hg4 mi
8:20 AM52 °FPassing clouds.7 mph94%30.07 "Hg4 mi
7:50 AM52 °FPassing clouds.7 mph94%30.07 "Hg4 mi
7:20 AM52 °FPartly cloudy.6 mph94%30.04 "Hg4 mi
6:50 AM52 °FFog.6 mph94%30.04 "Hg3 mi
6:20 AM52 °FFog.8 mph94%30.01 "Hg3 mi
5:50 AM52 °FFog.7 mph94%30.01 "Hg3 mi
5:20 AM52 °FFog.8 mph94%30.01 "Hg3 mi
4:50 AM52 °FFog.8 mph94%29.98 "Hg3 mi
4:20 AM52 °FFog.8 mph94%29.98 "Hg3 mi
3:50 AM52 °FFog.7 mph94%29.98 "Hg3 mi
3:20 AM52 °FFog.8 mph94%29.98 "Hg3 mi
2:50 AM52 °FFog.9 mph94%29.95 "Hg3 mi
2:20 AM52 °FFog.7 mph94%29.95 "Hg3 mi
1:50 AM52 °FPassing clouds.8 mph94%29.95 "Hg4 mi
1:20 AM52 °FPassing clouds.8 mph100%29.92 "Hg4 mi
12:50 AM52 °FPassing clouds.8 mph100%29.92 "Hg4 mi
12:20 AM52 °FPassing clouds.9 mph94%29.92 "Hg4 mi
11:50 PM
Oct 22
52 °FPassing clouds.9 mph94%29.89 "Hg5 mi
11:20 PM52 °FPartly cloudy.10 mph94%29.89 "Hg5 mi
10:50 PM52 °FPassing clouds.9 mph94%29.89 "Hg5 mi
10:20 PM52 °FPartly cloudy.9 mph94%29.86 "Hg5 mi
9:50 PM52 °FPartly cloudy.10 mph94%29.86 "Hg6 mi
9:20 PM52 °FPassing clouds.10 mph94%29.83 "Hg6 mi
8:50 PM52 °FPartly cloudy.9 mph94%29.83 "HgN/A
8:20 PM50 °FPartly cloudy.9 mph94%29.80 "HgN/A
7:50 PM50 °FPassing clouds.10 mph94%29.80 "HgN/A
7:20 PM50 °FPassing clouds.12 mph94%29.77 "Hg4 mi
6:50 PM50 °FLight rain. Partly sunny.8 mph100%29.74 "Hg4 mi
6:20 PM50 °FLight rain. Broken clouds.7 mph100%29.74 "Hg4 mi
5:50 PM50 °FLight rain. Partly sunny.5 mph100%29.71 "Hg4 mi
5:20 PM50 °FLight rain. Fog.6 mph94%29.71 "Hg3 mi
4:20 PM50 °FDrizzle. Fog.7 mph94%29.68 "Hg2 mi
3:50 PM50 °FDrizzle. Broken clouds.8 mph94%29.68 "Hg4 mi
3:20 PM50 °FLight rain. Partly sunny.8 mph94%29.65 "Hg6 mi
2:50 PM50 °FDrizzle. Partly sunny.9 mph88%29.65 "Hg5 mi
2:20 PM50 °FLight rain. Partly sunny.12 mph88%29.65 "Hg6 mi
1:50 PM48 °FLight rain. Partly sunny.14 mph94%29.65 "Hg6 mi
1:20 PM48 °FLight rain. Partly sunny.12 mph94%29.65 "Hg6 mi
12:50 PM48 °FLight rain. Partly sunny.14 mph94%29.62 "Hg5 mi
12:20 PM48 °FLight rain. Partly sunny.12 mph94%29.62 "Hg5 mi
Weather by CustomWeather, © 2014

See weather overviewHow to use our weather pages